Home   Weather   Bad Kissingen   Past weeks

Flag for Germany Past Weather in Bad Kissingen, Bavaria, Germany — Yesterday and Last 2 Weeks

Now
16 °F

Clear.


Feels Like: 16 °F
Forecast: 15 / 32 °F
Wind: No wind

Location: Illesheim

Current Time: Dec 4, 2016 at 7:24:58 am

Latest Report: Dec 4, 2016 at 5:58 am


Visibility: N/A

Pressure: 30.42 "Hg

Humidity: 96%

Dew Point: 15 °F

Location of Bad KissingenLocation

Past Weather in Bad Kissingen — Graph

°F

Bad Kissingen Temperature Yesterday

Maximum temperature yesterday: 32 °F (at 1:58 pm)
Minimum temperature yesterday: 19 °F (at 11:58 pm)
Average temperature yesterday: 26 °F

High & Low Weather Summary for the Past Weeks

 TemperatureHumidityPressure
High54 °F (Nov 21, 1:58 pm)100% (Nov 22, 10:58 pm)30.63 "Hg (Nov 22, 10:58 pm)
Low15 °F (Dec 4, 4:58 am)55% (Nov 29, 2:58 pm)29.67 "Hg (Nov 21, 1:58 pm)
Average37 °F88%30.16 "Hg
* Reported Nov 19 5:58 am — Dec 4 5:58 am, Bad Kissingen, Weather by CustomWeather, © 2016

Note: Actual official high and low records may vary slightly from our data, if they occured in-between our weather recording intervals... More about our weather records

Advertising

Bad Kissingen Weather History for the Previous 24 Hours

Scroll right to see more
 ConditionsComfort  
Time TempWeatherWind HumidityBarometerVisibility
5:58 am
Sun, Dec 4
16 °FClear.No wind96%30.42 "HgN/A
4:58 am15 °FClear.No wind94%30.42 "HgN/A
3:58 am16 °FIce fog.No wind93%30.40 "Hg6 mi
2:59 am16 °FIce fog.No wind93%30.32 "Hg1 mi
2:58 am15 °FIce fog.No wind94%30.40 "Hg0 mi
2:03 am16 °FIce fog.3 mph93%30.32 "Hg1 mi
1:53 am16 °FIce fog.No wind93%30.32 "Hg1 mi
12:58 am18 °FLight freezing rain. Ice fog.3 mph93%30.40 "Hg0 mi
11:58 pm
Sat, Dec 3
19 °FIce fog.No wind96%30.41 "Hg0 mi
10:58 pm21 °FIce fog.No wind97%30.39 "Hg0 mi
10:45 pm21 °FIce fog.No wind100%30.31 "Hg0 mi
10:04 pm21 °FIce fog.No wind93%30.30 "Hg1 mi
9:47 pm19 °FIce fog.No wind100%30.30 "Hg1 mi
8:58 pm22 °FClear.No wind99%30.38 "HgN/A
8:01 pm21 °FIce fog.No wind100%30.29 "Hg5 mi
7:58 pm21 °FIce fog.No wind98%30.37 "Hg2 mi
6:58 pm23 °FIce fog.No wind100%30.37 "Hg2 mi
6:46 pm23 °FIce fog.No wind100%30.29 "Hg2 mi
6:00 pm25 °FClear.No wind100%30.27 "HgN/A
5:45 pm27 °FIce fog.No wind100%30.27 "Hg1 mi
4:58 pm29 °FClear.No wind100%30.33 "HgN/A
3:58 pm32 °FSunny.5 mph100%30.32 "HgN/A
2:58 pm32 °FIce fog.No wind100%30.31 "Hg4 mi
1:58 pm32 °FScattered clouds.3 mph100%30.32 "HgN/A
1:52 pm32 °FScattered clouds.No wind100%30.26 "HgN/A
1:04 pm28 °FIce fog.No wind100%30.27 "Hg0 mi
12:56 pm28 °FIce fog.No wind100%30.27 "Hg1 mi
11:58 am27 °FChilly.3 mph100%30.34 "HgN/A
11:48 am27 °FChilly.3 mph100%30.27 "HgN/A
10:58 am26 °FChilly.No wind100%30.34 "HgN/A
10:47 am27 °FIce fog.3 mph100%30.27 "Hg0 mi
9:58 am26 °FIce fog.No wind100%30.34 "Hg0 mi
8:58 am26 °FIce fog.3 mph100%30.34 "Hg1 mi
7:58 am27 °FChilly.5 mph100%30.32 "HgN/A
7:48 am27 °FChilly.6 mph100%30.24 "HgN/A
Weather by CustomWeather, © 2016

See weather overviewHow to use our weather pages